TimeEST,TemperatureF,Dew PointF,Humidity,Sea Level PressureIn,VisibilityMPH,Wind Direction,Wind SpeedMPH,Gust SpeedMPH,PrecipitationIn,Events,Conditions,WindDirDegrees,DateUTC
12:15 AM,64.4,64.4,100,30.10,7.0,SSE,9.2,-,N/A,,Mostly Cloudy,160,2013-01-30 05:15:00
12:35 AM,64.4,64.4,100,30.10,8.0,South,9.2,-,N/A,,Mostly Cloudy,180,2013-01-30 05:35:00
12:55 AM,64.4,64.4,100,30.09,8.0,SSE,8.1,-,N/A,,Mostly Cloudy,160,2013-01-30 05:55:00
1:15 AM,64.4,64.4,100,30.08,8.0,South,6.9,-,N/A,,Scattered Clouds,170,2013-01-30 06:15:00
1:35 AM,64.4,64.4,100,30.08,8.0,South,9.2,-,N/A,,Mostly Cloudy,170,2013-01-30 06:35:00
1:55 AM,64.4,64.4,100,30.08,9.0,SSE,10.4,-,N/A,,Overcast,160,2013-01-30 06:55:00
2:15 AM,64.4,64.4,100,30.07,8.0,South,6.9,-,N/A,,Overcast,170,2013-01-30 07:15:00
2:35 AM,64.4,64.4,100,30.06,8.0,South,9.2,-,N/A,,Overcast,170,2013-01-30 07:35:00
2:55 AM,64.4,64.4,100,30.06,8.0,South,8.1,-,N/A,,Overcast,170,2013-01-30 07:55:00
3:15 AM,64.4,64.4,100,30.05,9.0,South,8.1,-,N/A,,Overcast,170,2013-01-30 08:15:00
3:35 AM,64.4,64.4,100,30.04,10.0,South,6.9,-,N/A,,Overcast,170,2013-01-30 08:35:00
3:55 AM,64.4,64.4,100,30.04,9.0,SSE,6.9,-,N/A,,Overcast,160,2013-01-30 08:55:00
4:15 AM,64.4,64.4,100,30.03,9.0,SSE,5.8,-,N/A,,Overcast,160,2013-01-30 09:15:00
4:35 AM,64.4,64.4,100,30.03,9.0,SSE,6.9,-,N/A,,Overcast,150,2013-01-30 09:35:00
4:55 AM,64.4,64.4,100,30.02,10.0,SSE,6.9,-,N/A,,Overcast,150,2013-01-30 09:55:00
5:15 AM,64.4,64.4,100,30.01,10.0,SSE,8.1,-,N/A,,Overcast,150,2013-01-30 10:15:00
5:35 AM,64.4,64.4,100,30.00,10.0,SSE,11.5,-,N/A,,Mostly Cloudy,160,2013-01-30 10:35:00
5:55 AM,66.2,66.2,100,30.00,10.0,SSE,11.5,21.9,N/A,,Mostly Cloudy,160,2013-01-30 10:55:00
6:15 AM,66.2,64.4,94,29.98,10.0,SSE,13.8,21.9,N/A,,Mostly Cloudy,160,2013-01-30 11:15:00
6:35 AM,66.2,64.4,94,29.98,10.0,SSE,10.4,-,N/A,,Mostly Cloudy,160,2013-01-30 11:35:00
6:55 AM,66.2,64.4,94,29.99,10.0,South,10.4,18.4,N/A,,Overcast,170,2013-01-30 11:55:00
7:15 AM,66.2,64.4,94,29.99,10.0,South,11.5,16.1,N/A,,Overcast,170,2013-01-30 12:15:00
7:35 AM,66.2,64.4,94,29.98,10.0,South,12.7,17.3,N/A,,Overcast,170,2013-01-30 12:35:00
7:55 AM,66.2,64.4,94,29.98,10.0,South,11.5,25.3,N/A,,Overcast,170,2013-01-30 12:55:00
8:15 AM,68.0,64.4,88,29.97,10.0,SSE,12.7,19.6,N/A,,Overcast,160,2013-01-30 13:15:00
8:35 AM,68.0,64.4,88,29.97,10.0,South,15.0,23.0,N/A,,Overcast,170,2013-01-30 13:35:00
8:55 AM,68.0,64.4,88,29.96,10.0,South,15.0,20.7,N/A,,Overcast,170,2013-01-30 13:55:00
9:15 AM,68.0,64.4,88,29.96,10.0,South,12.7,21.9,N/A,,Overcast,170,2013-01-30 14:15:00
9:35 AM,68.0,64.4,88,29.96,10.0,South,16.1,25.3,N/A,,Overcast,170,2013-01-30 14:35:00
9:55 AM,69.8,64.4,83,29.94,10.0,South,17.3,21.9,N/A,,Overcast,170,2013-01-30 14:55:00
10:15 AM,71.6,64.4,78,29.94,10.0,SSE,16.1,24.2,N/A,,Mostly Cloudy,160,2013-01-30 15:15:00
10:35 AM,71.6,64.4,78,29.94,10.0,SSE,19.6,29.9,N/A,,Overcast,160,2013-01-30 15:35:00
10:55 AM,71.6,64.4,78,29.94,10.0,South,16.1,23.0,N/A,,Overcast,180,2013-01-30 15:55:00
11:15 AM,73.4,62.6,69,29.92,10.0,South,17.3,26.5,N/A,,Overcast,180,2013-01-30 16:15:00
11:35 AM,73.4,62.6,69,29.91,10.0,South,16.1,25.3,N/A,,Overcast,170,2013-01-30 16:35:00
11:55 AM,75.2,62.6,65,29.90,10.0,South,25.3,32.2,N/A,,Mostly Cloudy,170,2013-01-30 16:55:00
12:15 PM,75.2,62.6,65,29.88,10.0,South,20.7,35.7,N/A,,Mostly Cloudy,170,2013-01-30 17:15:00
12:35 PM,75.2,62.6,65,29.86,10.0,South,26.5,35.7,N/A,,Mostly Cloudy,170,2013-01-30 17:35:00
12:55 PM,77.0,60.8,57,29.84,10.0,South,20.7,33.4,N/A,,Scattered Clouds,180,2013-01-30 17:55:00
1:15 PM,77.0,60.8,57,29.83,10.0,South,15.0,35.7,N/A,,Mostly Cloudy,170,2013-01-30 18:15:00
1:35 PM,77.0,59.0,54,29.81,10.0,South,16.1,31.1,N/A,,Mostly Cloudy,170,2013-01-30 18:35:00
1:55 PM,77.0,59.0,54,29.79,10.0,SSE,21.9,34.5,N/A,,Scattered Clouds,160,2013-01-30 18:55:00
2:15 PM,78.8,59.0,51,29.78,10.0,SSE,23.0,33.4,N/A,,Partly Cloudy,160,2013-01-30 19:15:00
2:35 PM,77.0,59.0,54,29.77,10.0,SSE,19.6,33.4,N/A,,Partly Cloudy,160,2013-01-30 19:35:00
2:55 PM,77.0,59.0,54,29.76,10.0,South,25.3,32.2,N/A,,Scattered Clouds,170,2013-01-30 19:55:00
3:15 PM,77.0,59.0,54,29.75,10.0,SSE,16.1,32.2,N/A,,Scattered Clouds,160,2013-01-30 20:15:00
3:35 PM,75.2,59.0,57,29.73,10.0,South,20.7,32.2,N/A,,Partly Cloudy,170,2013-01-30 20:35:00
3:55 PM,75.2,57.2,53,29.73,10.0,SSE,19.6,35.7,N/A,,Partly Cloudy,150,2013-01-30 20:55:00
4:15 PM,75.2,59.0,57,29.71,10.0,SSE,21.9,36.8,N/A,,Clear,160,2013-01-30 21:15:00
4:35 PM,73.4,59.0,61,29.71,10.0,SSE,16.1,34.5,N/A,,Clear,160,2013-01-30 21:35:00
4:55 PM,73.4,60.8,65,29.70,10.0,SSE,19.6,29.9,N/A,,Clear,150,2013-01-30 21:55:00
5:15 PM,71.6,62.6,73,29.70,10.0,SSE,17.3,27.6,N/A,,Partly Cloudy,150,2013-01-30 22:15:00
5:35 PM,71.6,62.6,73,29.69,10.0,SSE,19.6,29.9,N/A,,Clear,150,2013-01-30 22:35:00
5:55 PM,71.6,62.6,73,29.67,10.0,SE,16.1,33.4,N/A,,Clear,140,2013-01-30 22:55:00
6:15 PM,71.6,60.8,69,29.66,10.0,SE,17.3,26.5,N/A,,Clear,140,2013-01-30 23:15:00
6:35 PM,69.8,60.8,73,29.66,10.0,SSE,18.4,32.2,N/A,,Clear,150,2013-01-30 23:35:00
6:55 PM,69.8,60.8,73,29.65,10.0,SSE,20.7,31.1,N/A,,Clear,150,2013-01-30 23:55:00
7:15 PM,69.8,60.8,73,29.64,10.0,SSE,19.6,32.2,N/A,,Clear,150,2013-01-31 00:15:00
7:35 PM,68.0,60.8,78,29.63,10.0,SSE,21.9,32.2,N/A,,Clear,150,2013-01-31 00:35:00
7:55 PM,68.0,62.6,83,29.62,10.0,SSE,17.3,27.6,N/A,,Clear,150,2013-01-31 00:55:00
8:15 PM,68.0,60.8,78,29.62,10.0,SSE,20.7,32.2,N/A,,Partly Cloudy,150,2013-01-31 01:15:00
8:35 PM,68.0,60.8,78,29.60,10.0,SSE,19.6,29.9,N/A,,Clear,150,2013-01-31 01:35:00
8:55 PM,69.8,60.8,73,29.59,10.0,SSE,21.9,34.5,N/A,,Clear,150,2013-01-31 01:55:00
9:15 PM,69.8,60.8,73,29.58,10.0,SSE,20.7,31.1,N/A,,Partly Cloudy,150,2013-01-31 02:15:00
9:35 PM,71.6,60.8,69,29.56,10.0,SSE,19.6,32.2,N/A,,Partly Cloudy,150,2013-01-31 02:35:00
9:55 PM,71.6,60.8,69,29.55,10.0,SSE,21.9,38.0,N/A,,Clear,150,2013-01-31 02:55:00
10:15 PM,68.0,64.4,88,29.62,2.0,SSW,18.4,32.2,0.11,Rain,Heavy Rain,210,2013-01-31 03:15:00
10:35 PM,64.4,64.4,100,29.63,3.0,SW,17.3,26.5,0.17,,Mostly Cloudy,230,2013-01-31 03:35:00
10:55 PM,60.8,60.8,100,29.64,3.0,SW,12.7,28.8,0.22,Rain,Heavy Rain,230,2013-01-31 03:55:00
11:15 PM,59.0,59.0,100,29.66,10.0,SW,9.2,20.7,N/A,,Overcast,220,2013-01-31 04:15:00
11:35 PM,57.2,55.4,94,29.69,3.0,SW,15.0,23.0,0.03,,Mostly Cloudy,220,2013-01-31 04:35:00
11:55 PM,55.4,53.6,94,29.68,4.0,SW,11.5,18.4,0.06,,Overcast,220,2013-01-31 04:55:00